Regional Weather Roundup
Issued by NWS

Home | Current Version | Previous Version | Graphics & Text | Print | Product List | Glossary On
Versions: 1 2 3 4 5 6 7 8 9 10 11 12 13 14 15 16 17 18 19 20 21 22 23 24 25 26 27 28 29 30 31 32 33 34 35 36 37 38 39 40 41 42 43 44 45 46 47 48 49 50
000
ASUS43 KMPX 241910
RWRMN
WEATHER ROUNDUP FOR MINNESOTA
NATIONAL WEATHER SERVICE TWIN CITIES/CHANHASSEN MN
100 PM CST SAT JAN 24 2015


NOTE: "FAIR" INDICATES FEW OR NO CLOUDS BELOW 12,000 FEET WITH NO
SIGNIFICANT WEATHER AND/OR OBSTRUCTIONS TO VISIBILITY. N/A MEANS
CURRENT SKY AND/OR WEATHER CONDITIONS ARE NOT AVAILABLE.

MNZ060>063-068>070-242000-
   Twin Cities Metro

CITY           SKY/WX    TMP DP  RH WIND       PRES   REMARKS
TWIN CITIES    MOSUNNY   40  31  70 W5        29.62F
ST PAUL        SUNNY     40  32  73 W12       29.63F
CRYSTAL        SUNNY     41  32  70 W5        29.60F
BLAINE         MOSUNNY   43  34  70 W7        29.61F
LAKEVILLE      SUNNY     37  30  75 W7        29.62F
EDEN PRAIRIE   SUNNY     41  31  67 W6        29.61F
SOUTH ST PAUL  SUNNY     41  32  70 W9        29.62F
LAKE ELMO      FAIR      39  32  75 SW8       29.62F
$$
MNZ001>005-007-008-013>017-022>024-027-028-242000-
   Northwest Minnesota

CITY           SKY/WX    TMP DP  RH WIND       PRES   REMARKS
BEMIDJI        CLOUDY    34  30  85 CALM      29.59F
HALLOCK        CLOUDY    30  28  93 N8        29.66F WCI  23
ROSEAU         CLOUDY    28  25  86 NE13      29.66S WCI  18
WARROAD        CLOUDY    25  21  86 NE12      29.68S WCI  14
THIEF RVR FALL CLOUDY    34  28  80 NE10      29.63F WCI  26
CROOKSTON      CLOUDY    32  30  93 E7        29.63F WCI  26
FOSSTON        FOG       30  28  93 CALM      29.61S VSB 1
DETROIT LAKES  CLOUDY    34  32  93 CALM      29.59S
MOORHEAD       CLOUDY    34  34 100 NW5       29.61F WCI  30
PARK RAPIDS    CLOUDY    31  29  92 W3        29.58F FOG
MAHNOMEN       CLOUDY    30  29  97 CALM      29.60S FOG
$$
MNZ006-009>011-018-025>026-242000-
   North Central Minnesota

CITY           SKY/WX    TMP DP  RH WIND       PRES   REMARKS
BAUDETTE       CLOUDY    29  21  72 N12       29.65S WCI  19
FLAG ISLAND    SUNNY     19  10  68 N15       29.69F WCI   5
INTL FALLS     CLOUDY    24  12  60 N8        29.66S WCI  15
WASKISH        CLOUDY    36  28  75 NE3       29.62F
BIG FORK       CLOUDY    36  27  69 N3        29.61S
LONGVILLE      PTSUNNY   36  30  80 CALM      29.58F
GRAND RAPIDS   CLOUDY    34  28  80 NE5       29.59F WCI  30
CRANE LAKE     CLOUDY    27  16  63 N5        29.66S WCI  21
ORR            CLOUDY    30  21  69 CALM      29.60R
COOK           CLOUDY    32  25  74 N6        29.61S WCI  26
WALKER         CLOUDY    32  29  86 CALM      29.59F
$$
MNZ012-019>021-037-242000-
   Northeast Minnesota

CITY           SKY/WX    TMP DP  RH WIND       PRES   REMARKS
DULUTH         CLOUDY    35  28  75 NW6       29.57F WCI  30
ELY            CLOUDY    30  25  80 NE7       29.60S WCI  23
HIBBING        CLOUDY    35  28  75 NW3       29.59S
EVELETH        CLOUDY    32  28  86 NE6       29.60S WCI  26
DULUTH HARBOR  CLOUDY    37  32  81 CALM      29.61F
TWO HARBORS    CLOUDY    39  30  70 N3        29.57F
SILVER BAY     CLOUDY    37  27  65 N3        29.58S
GRAND MARAIS     N/A     31  19  61 NW8G18    29.62F WCI  23
G MARAIS ARPRT CLOUDY    25  14  63 NW12      29.58F WCI  14
$$
MNZ029>031-032-039>041-046>048-054>057-064-242000-
   West Central Minnesota

CITY           SKY/WX    TMP DP  RH WIND       PRES   REMARKS
FERGUS FALLS   CLOUDY    32  32 100 CALM      29.62F
WHEATON        CLOUDY    34  28  80 W10       29.62F WCI  26
MORRIS         CLOUDY    37  32  81 W6        29.59F
ALEXANDRIA     CLOUDY    36  30  79 W6        29.59F
ELBOW LAKE     FAIR      33  30  92 NW3       29.59F
WADENA         CLOUDY    32  30  93 CALM      29.58F FOG
GLENWOOD       CLOUDY    36  30  80 W5        29.58F
APPLETON       CLOUDY    37  34  87 W5        29.60F
BENSON         CLOUDY    37  30  75 NW5       29.60F
ORTONVILLE     CLOUDY    37  30  75 NW7       29.60F
MADISON        CLOUDY    41  36  81 W7        29.60F
WILLMAR        FAIR      37  32  81 W3        29.61F
$$
MNZ033>034-036-042>043-049>051-058-059-242000-
   Central Minnesota

CITY           SKY/WX    TMP DP  RH WIND       PRES   REMARKS
ST CLOUD       SUNNY     40  31  70 SW7       29.59F
SAUK CENTRE    FAIR      35  32  87 W3        29.59F
PAYNESVILLE    MOSUNNY   36  31  82 W3        29.59F
AITKIN         CLOUDY    37  30  75 CALM      29.58F
PINE RIVER     CLOUDY    32  30  93 CALM      29.63F
BRAINERD       CLOUDY    34  31  88 CALM      29.60F
STAPLES        CLOUDY    32  30  93 N5        29.59F WCI  27
LONG PRAIRIE   FAIR      36  32  87 W5        29.58F
LITTLE FALLS   MOSUNNY   36  30  80 W3        29.60F
LITCHFIELD     MOSUNNY   39  36  87 CALM      29.61F
BUFFALO        SUNNY     39  31  75 S3        29.62F
MAPLE LAKE     SUNNY     40  33  77 SW5       29.61F
$$
MNZ037-044-045-052-053-242000-
   East Central Minnesota

CITY           SKY/WX    TMP DP  RH WIND       PRES   REMARKS
PRINCETON      PTSUNNY   43  32  65 SW3       29.60F
MORA           PTSUNNY   37  30  75 SW5       29.63F
CAMBRIDGE      MOSUNNY   43  30  61 CALM      29.59F
RUSH CITY      CLOUDY    39  31  72 CALM      29.62F
MOOSE LAKE     CLOUDY    36  30  80 CALM      29.58F
HINCKLEY       CLOUDY    39  32  75 NW3       29.61F
CLOQUET        CLOUDY    36  28  75 CALM      29.59F
MCGREGOR       CLOUDY    36  32  87 CALM      29.60F
$$
MNZ071>073-080-081-089-090-097-098-242000-
   Southwest Minnesota

CITY           SKY/WX    TMP DP  RH WIND       PRES   REMARKS
MONTEVIDEO     CLOUDY    37  32  81 NW5       29.62F
GRANITE FALLS  CLOUDY    37  32  83 CALM      29.62F
CANBY          CLOUDY    40  32  73 W7        29.61F
MARSHALL       CLOUDY    37  30  75 W9        29.62F
REDWOOD FALLS  PTSUNNY   39  32  76 W9        29.61F
OLIVIA         PTSUNNY   37  32  81 W7        29.61F
PIPESTONE      CLOUDY    37  34  87 W10       29.62F
WINDOM         MOSUNNY   39  34  81 SW10      29.62F
WORTHINGTON    CLOUDY    36  30  80 W12       29.64F
JACKSON        MOSUNNY   37  32  81 W9        29.64F
TRACY          CLOUDY    38  33  81 SW10      29.62F
SLAYTON        CLOUDY    36  32  85 SW6       29.63F
$$
MNZ065>067-074>077-082>085-091>093-242000-
   South Central Minnesota

CITY           SKY/WX    TMP DP  RH WIND       PRES   REMARKS
MANKATO        SUNNY     41  32  70 SW7       29.63F
NEW ULM        MOSUNNY   39  34  81 W8        29.62F
ST JAMES       MOSUNNY   43  36  75 SW8       29.63F
FAIRMONT       SUNNY     43  32  65 W12       29.63F
GLENCOE        SUNNY     38  34  84 SW5       29.61F
FARIBAULT      SUNNY     39  32  75 S6        29.63F
OWATONNA       SUNNY     37  32  81 SW5       29.63F
WASECA         SUNNY     37  34  87 SW5       29.64F
ALBERT LEA     SUNNY     39  34  81 SW6       29.62F
$$
MNZ078>079-086>088-094>096-242000-
   Southeast Minnesota

CITY           SKY/WX    TMP DP  RH WIND       PRES   REMARKS
ROCHESTER      SUNNY     35  30  82 W9        29.64F WCI  28
RED WING       SUNNY     41  30  65 CALM      29.62F
STANTON        SUNNY     39  32  75 SW6       29.62F
DODGE CENTER   SUNNY     36  32  87 W7        29.62F
WINONA         MOSUNNY   41  32  70 CALM      29.64F
AUSTIN         SUNNY     37  32  81 SW10      29.63F
PRESTON        SUNNY     35  30  82 W8        29.64F WCI  29
$$
ABBREVIATIONS USED IN REMARKS
   TC - TEMPERATURES IN CELSIUS
  WCI - WIND CHILL INDEX
   HX - HEAT INDEX
  VSB - VISIBILITY
$$


USA.gov is the U.S. government's official web portal to all federal, state and local government web resources and services.